EW9994 Weather Reports


time (UTC)temp
C
wind
direction
speed
KPH
gust
KPH
rain 1hr
cm
rain 24hr
cm
rain mn
cm
humidity
%
barometer
mb
20200930030910 12 29 4.8 4.8 0.00 0.00 0.00 92 1016.8
20200930024909 12 43 4.8 8.0 0.00 0.00 0.00 92 1016.9
20200930024409 12 36 3.2 8.0 0.00 0.00 0.00 92 1016.9
20200930023411 12 41 4.8 8.0 0.00 0.00 0.00 92 1016.9
20200930021409 12 37 3.2 4.8 0.00 0.00 0.00 92 1017.1
20200930020918 12 37 4.8 4.8 0.00 0.00 0.00 91 1017.1
20200930020412 12 39 4.8 4.8 0.00 0.00 0.00 91 1017.2
20200930014909 13 60 3.2 4.8 0.00 0.00 0.00 91 1017.4
20200930014414 12 51 4.8 4.8 0.00 0.00 0.00 91 1017.4
20200930013909 12 77 0.0 4.8 0.00 0.00 0.00 91 1017.4
20200930013408 12 37 3.2 11.3 0.00 0.00 0.00 91 1017.4
20200930010912 12 24 6.4 11.3 0.00 0.00 0.00 91 1017.5
20200930010409 12 1 4.8 9.7 0.00 0.00 0.00 91 1017.5
20200930004908 12 31 4.8 9.7 0.00 0.00 0.00 91 1017.7
20200930004408 12 23 4.8 9.7 0.00 0.00 0.00 91 1017.7
20200930003909 12 31 4.8 8.0 0.00 0.00 0.00 91 1017.7
20200930003411 12 37 4.8 11.3 0.00 0.00 0.00 91 1017.6
20200930000910 13 39 6.4 9.7 0.00 0.00 0.00 91 1017.5
20200930000414 13 34 4.8 9.7 0.00 0.00 0.00 91 1017.5
20200929234908 13 39 3.2 9.7 0.00 0.00 0.00 91 1017.6
20200929233910 13 21 6.4 9.7 0.00 0.00 0.00 91 1017.6
20200929233411 13 24 3.2 8.0 0.00 0.00 0.00 91 1017.6
20200929231913 13 21 3.2 4.8 0.00 0.00 0.00 90 1017.6
20200929231409 13 14 1.6 4.8 0.00 0.00 0.00 90 1017.5
20200929230409 13 17 4.8 8.0 0.00 0.00 0.00 90 1017.6
20200929224908 13 28 3.2 4.8 0.00 0.00 0.00 90 1017.7
20200929224408 13 39 4.8 11.3 0.00 0.00 0.00 90 1017.7
20200929223910 13 37 3.2 4.8 0.00 0.00 0.00 90 1017.7
20200929223410 13 26 4.8 8.0 0.00 0.00 0.00 90 1017.8
20200929221408 13 26 3.2 4.8 0.00 0.00 0.00 89 1017.9
20200929220909 13 22 1.6 4.8 0.00 0.00 0.00 89 1017.9
20200929220408 13 50 3.2 9.7 0.00 0.00 0.00 89 1017.9
20200929214409 13 66 1.6 3.2 0.00 0.00 0.00 87 1017.9
20200929213914 14 64 1.6 9.7 0.00 0.00 0.00 87 1017.9
20200929213409 14 13 4.8 11.3 0.00 0.00 0.00 87 1017.9
20200929211910 14 37 6.4 11.3 0.00 0.00 0.00 88 1017.9
20200929211410 13 18 8.0 11.3 0.00 0.00 0.00 88 1017.9
20200929210409 13 36 4.8 11.3 0.00 0.00 0.00 88 1017.9
20200929204907 13 37 4.8 9.7 0.00 0.00 0.00 88 1017.9
20200929203910 14 34 6.4 11.3 0.00 0.00 0.00 88 1017.8
20200929203416 14 44 6.4 9.7 0.00 0.00 0.00 88 1017.8
20200929201908 14 33 4.8 9.7 0.00 0.00 0.00 88 1017.7
20200929200408 14 32 6.4 9.7 0.00 0.00 0.00 87 1017.7
20200929194908 15 30 3.2 9.7 0.00 0.00 0.00 86 1017.5
20200929194409 15 26 8.0 12.9 0.00 0.00 0.00 86 1017.5
20200929193910 15 33 6.4 11.3 0.00 0.00 0.00 86 1017.5
20200929193412 15 39 3.2 9.7 0.00 0.00 0.00 86 1017.5
20200929191908 15 27 8.0 12.9 0.00 0.00 0.00 86 1017.4
20200929190908 15 35 8.0 12.9 0.00 0.00 0.00 86 1017.4
20200929190408 15 29 9.7 12.9 0.00 0.00 0.00 86 1017.4
20200929184908 15 21 9.7 12.9 0.00 0.00 0.00 86 1017.5
20200929184411 15 27 6.4 11.3 0.00 0.00 0.00 85 1017.5
20200929183410 15 12 4.8 14.5 0.00 0.00 0.00 85 1017.4
20200929181908 15 21 6.4 11.3 0.00 0.00 0.00 85 1017.3
20200929181410 15 36 6.4 9.7 0.00 0.00 0.00 84 1017.3
20200929180909 15 41 8.0 12.9 0.00 0.00 0.00 84 1017.4
20200929180410 15 30 9.7 14.5 0.00 0.00 0.00 84 1017.3
20200929174408 16 34 8.0 14.5 0.00 0.00 0.00 83 1017.3
20200929173909 16 22 8.0 12.9 0.00 0.00 0.00 83 1017.2
20200929173408 16 15 6.4 14.5 0.00 0.00 0.00 82 1017.2
20200929171908 17 27 9.7 12.9 0.00 0.00 0.00 80 1017.1
20200929170408 18 32 4.8 9.7 0.00 0.00 0.00 74 1017.1
20200929164409 19 203 3.2 4.8 0.00 0.00 0.00 69 1017.0
20200929163912 20 197 4.8 4.8 0.00 0.00 0.00 68 1017.0
20200929161909 20 230 4.8 11.3 0.00 0.00 0.00 67 1016.9
20200929160909 20 214 4.8 14.5 0.00 0.00 0.00 68 1016.9
20200929154908 20 222 3.2 9.7 0.00 0.00 0.00 69 1016.8
20200929153909 20 227 8.0 12.9 0.00 0.00 0.00 68 1016.7
20200929153408 20 222 6.4 19.3 0.00 0.00 0.00 69 1016.7
20200929151912 20 227 8.0 11.3 0.00 0.00 0.00 68 1016.7
20200929150907 20 233 4.8 9.7 0.00 0.00 0.00 68 1016.7
20200929144908 20 208 8.0 14.5 0.00 0.00 0.00 68 1016.9
20200929144408 20 157 6.4 12.9 0.00 0.00 0.00 68 1016.9
20200929143909 20 135 1.6 3.2 0.00 0.00 0.00 68 1017.0
20200929143408 20 118 0.0 4.8 0.00 0.00 0.00 68 1017.0
20200929141408 20 212 0.0 1.6 0.00 0.00 0.00 66 1017.0
20200929140908 20 212 0.0 1.6 0.00 0.00 0.00 67 1017.0
20200929134910 20 310 1.6 3.2 0.00 0.00 0.00 66 1017.1
20200929134407 20 312 1.6 3.2 0.00 0.00 0.00 66 1017.1
20200929133913 20 314 3.2 4.8 0.00 0.00 0.00 66 1017.1
20200929131408 21 231 0.0 3.2 0.00 0.00 0.00 66 1017.4
20200929130908 20 231 1.6 4.8 0.00 0.00 0.00 67 1017.4
20200929130409 20 191 3.2 9.7 0.00 0.00 0.00 67 1017.4
20200929124910 20 231 1.6 4.8 0.00 0.00 0.00 69 1017.5
20200929124409 20 257 1.6 4.8 0.00 0.00 0.00 69 1017.6
20200929123911 19 105 1.6 4.8 0.00 0.00 0.00 70 1017.7
20200929123408 19 168 8.0 11.3 0.00 0.00 0.00 69 1017.8
20200929121909 18 226 1.6 4.8 0.00 0.00 0.00 70 1017.9
20200929120409 19 207 4.8 12.9 0.00 0.00 0.00 70 1018.1
20200929114411 20 192 3.2 16.1 0.00 0.00 0.00 69 1018.1
20200929113410 19 220 4.8 12.9 0.00 0.00 0.00 68 1018.2
20200929110409 18 164 4.8 14.5 0.00 0.00 0.00 71 1018.4
20200929104909 18 178 4.8 11.3 0.00 0.00 0.00 73 1018.5
20200929104409 17 260 3.2 11.3 0.00 0.00 0.00 71 1018.5
20200929103910 18 223 4.8 11.3 0.00 0.00 0.00 71 1018.5
20200929101409 17 161 3.2 11.3 0.00 0.00 0.00 73 1018.7
20200929100408 17 217 8.0 12.9 0.00 0.00 0.00 71 1018.7
20200929094908 17 238 4.8 9.7 0.00 0.00 0.00 73 1018.6
20200929094407 16 222 4.8 9.7 0.00 0.00 0.00 74 1018.6
20200929093907 16 207 8.0 11.3 0.00 0.00 0.00 73 1018.6
20200929093411 16 239 4.8 9.7 0.00 0.00 0.00 73 1018.6
20200929091408 16 234 3.2 8.0 0.00 0.00 0.00 77 1018.7
20200929090911 16 196 3.2 4.8 0.00 0.00 0.00 79 1018.6
20200929090411 15 229 3.2 8.0 0.00 0.00 0.00 78 1018.6
20200929084907 14 247 3.2 8.0 0.00 0.00 0.00 82 1018.5
20200929084408 14 211 1.6 4.8 0.00 0.00 0.00 84 1018.5
20200929083408 13 252 4.8 8.0 0.00 0.00 0.00 82 1018.6
20200929081908 13 223 3.2 8.0 0.00 0.00 0.00 86 1018.4
20200929081408 13 196 4.8 4.8 0.00 0.00 0.00 87 1018.3
20200929080908 13 166 4.8 4.8 0.00 0.00 0.00 87 1018.2
20200929074908 12 153 0.0 1.6 0.00 0.00 0.00 89 1018.2
20200929074409 12 152 1.6 4.8 0.00 0.00 0.00 89 1018.0
20200929073908 12 153 3.2 4.8 0.00 0.00 0.00 90 1018.1
20200929071909 11 256 1.6 1.6 0.00 0.00 0.00 93 1017.9
20200929071408 11 256 1.6 1.6 0.00 0.00 0.00 93 1017.8
20200929064907 10 29 0.0 3.2 0.00 0.00 0.00 93 1017.4
20200929064407 9 29 4.8 4.8 0.00 0.00 0.00 93 1017.3
20200929063907 9 19 1.6 4.8 0.00 0.00 0.00 93 1017.4
20200929061419 9 167 0.0 0.0 0.00 0.00 0.00 93 1017.4
20200929060909 9 77 0.0 1.6 0.00 0.00 0.00 92 1017.3
20200929054912 8 33 4.8 4.8 0.00 0.00 0.00 92 1017.1
20200929054409 8 23 3.2 4.8 0.00 0.00 0.00 92 1017.1
20200929053910 8 6 0.0 0.0 0.00 0.00 0.00 92 1017.1
20200929053413 8 6 0.0 3.2 0.00 0.00 0.00 92 1017.1
20200929051911 8 12 1.6 4.8 0.00 0.00 0.00 92 1016.8
20200929051408 8 40 6.4 8.0 0.00 0.00 0.00 92 1016.7
20200929050908 8 44 6.4 8.0 0.00 0.00 0.00 92 1016.7
20200929050413 8 57 4.8 9.7 0.00 0.00 0.00 92 1016.8
20200929044908 8 31 8.0 11.3 0.00 0.00 0.00 92 1016.5
20200929043907 9 39 8.0 8.0 0.00 0.00 0.00 91 1016.5
20200929043408 9 36 3.2 4.8 0.00 0.00 0.00 91 1016.4
20200929041408 9 60 1.6 4.8 0.00 0.00 0.00 91 1016.3
20200929040907 9 34 3.2 9.7 0.00 0.00 0.00 91 1016.3
20200929040406 9 37 8.0 9.7 0.00 0.00 0.00 91 1016.2
20200929034910 9 62 4.8 8.0 0.00 0.00 0.00 91 1016.2
20200929033912 9 35 8.0 12.9 0.00 0.00 0.00 91 1016.1
20200929033406 9 35 8.0 11.3 0.00 0.00 0.00 91 1016.1